Year,Month,Day,Hour,Minute,Value (Times are PST for temperature in C)
2007,07,14,00,00,17.20
2007,07,14,00,01,17.20
2007,07,14,00,02,17.10
2007,07,14,00,03,17.10
2007,07,14,00,04,17.10
2007,07,14,00,05,17.00
2007,07,14,00,06,17.00
2007,07,14,00,07,17.00
2007,07,14,00,08,16.90
2007,07,14,00,09,16.90
2007,07,14,00,10,16.90
2007,07,14,00,11,16.80
2007,07,14,00,12,16.80
2007,07,14,00,13,16.80
2007,07,14,00,14,16.80
2007,07,14,00,15,16.80
2007,07,14,00,16,16.70
2007,07,14,00,17,16.70
2007,07,14,00,18,16.70
2007,07,14,00,19,16.70
2007,07,14,00,20,16.70
2007,07,14,00,21,16.70
2007,07,14,00,22,16.70
2007,07,14,00,23,16.70
2007,07,14,00,24,16.70
2007,07,14,00,25,16.70
2007,07,14,00,26,16.70
2007,07,14,00,27,16.70
2007,07,14,00,28,16.70
2007,07,14,00,29,16.70
2007,07,14,00,30,16.70
2007,07,14,00,31,16.70
2007,07,14,00,32,16.70
2007,07,14,00,33,16.70
2007,07,14,00,34,16.70
2007,07,14,00,35,16.70
2007,07,14,00,36,16.70
2007,07,14,00,37,16.70
2007,07,14,00,38,16.70
2007,07,14,00,39,16.70
2007,07,14,00,40,16.70
2007,07,14,00,41,16.70
2007,07,14,00,42,16.70
2007,07,14,00,43,16.70
2007,07,14,00,44,16.70
2007,07,14,00,45,16.70
2007,07,14,00,46,16.70
2007,07,14,00,47,16.70
2007,07,14,00,48,16.70
2007,07,14,00,49,16.60
2007,07,14,00,50,16.60
2007,07,14,00,51,16.60
2007,07,14,00,52,16.50
2007,07,14,00,53,16.40
2007,07,14,00,54,16.40
2007,07,14,00,55,16.40
2007,07,14,00,56,16.30
2007,07,14,00,57,16.30
2007,07,14,00,58,16.20
2007,07,14,00,59,16.20
2007,07,14,01,00,16.20
2007,07,14,01,01,16.20
2007,07,14,01,02,16.10
2007,07,14,01,03,16.10
2007,07,14,01,04,16.10
2007,07,14,01,05,16.10
2007,07,14,01,06,16.10
2007,07,14,01,07,16.10
2007,07,14,01,08,16.10
2007,07,14,01,09,16.10
2007,07,14,01,10,16.10
2007,07,14,01,11,16.10
2007,07,14,01,12,15.90
2007,07,14,01,13,15.90
2007,07,14,01,14,15.90
2007,07,14,01,15,15.90
2007,07,14,01,16,15.90
2007,07,14,01,17,15.90
2007,07,14,01,18,15.80
2007,07,14,01,19,15.80
2007,07,14,01,20,15.80
2007,07,14,01,21,15.80
2007,07,14,01,22,15.80
2007,07,14,01,23,15.80
2007,07,14,01,24,15.80
2007,07,14,01,25,15.80
2007,07,14,01,26,15.80
2007,07,14,01,27,15.80
2007,07,14,01,28,15.80
2007,07,14,01,29,15.80
2007,07,14,01,30,15.80
2007,07,14,01,31,15.80
2007,07,14,01,32,15.80
2007,07,14,01,33,15.80
2007,07,14,01,34,15.80
2007,07,14,01,35,15.80
2007,07,14,01,36,15.80
2007,07,14,01,37,15.80
2007,07,14,01,38,15.80
2007,07,14,01,39,15.80
2007,07,14,01,40,15.80
2007,07,14,01,41,15.80
2007,07,14,01,42,15.80
2007,07,14,01,43,15.80
2007,07,14,01,44,15.80
2007,07,14,01,45,15.80
2007,07,14,01,46,15.70
2007,07,14,01,47,15.70
2007,07,14,01,48,15.70
2007,07,14,01,49,15.70
2007,07,14,01,50,15.70
2007,07,14,01,51,15.70
2007,07,14,01,52,15.70
2007,07,14,01,53,15.70
2007,07,14,01,54,15.70
2007,07,14,01,55,15.70
2007,07,14,01,56,15.70
2007,07,14,01,57,15.70
2007,07,14,01,58,15.80
2007,07,14,01,59,15.80
2007,07,14,02,00,15.80
2007,07,14,02,01,15.90
2007,07,14,02,02,15.90
2007,07,14,02,03,15.90
2007,07,14,02,04,15.90
2007,07,14,02,05,15.90
2007,07,14,02,06,16.10
2007,07,14,02,07,16.10
2007,07,14,02,08,16.10
2007,07,14,02,09,16.10
2007,07,14,02,10,16.10
2007,07,14,02,11,16.10
2007,07,14,02,12,16.10
2007,07,14,02,13,16.10
2007,07,14,02,14,16.10
2007,07,14,02,15,16.10
2007,07,14,02,16,16.10
2007,07,14,02,17,16.10
2007,07,14,02,18,16.10
2007,07,14,02,19,16.10
2007,07,14,02,20,16.10
2007,07,14,02,21,16.10
2007,07,14,02,22,16.10
2007,07,14,02,23,16.10
2007,07,14,02,24,16.10
2007,07,14,02,25,16.10
2007,07,14,02,26,16.10
2007,07,14,02,27,16.10
2007,07,14,02,28,16.10
2007,07,14,02,29,16.10
2007,07,14,02,30,16.00
2007,07,14,02,31,15.90
2007,07,14,02,32,15.90
2007,07,14,02,33,15.90
2007,07,14,02,34,15.90
2007,07,14,02,35,15.80
2007,07,14,02,36,15.80
2007,07,14,02,37,15.80
2007,07,14,02,38,15.80
2007,07,14,02,39,15.80
2007,07,14,02,40,15.80
2007,07,14,02,41,15.80
2007,07,14,02,42,15.80
2007,07,14,02,43,15.70
2007,07,14,02,44,15.70
2007,07,14,02,45,15.70
2007,07,14,02,46,15.60
2007,07,14,02,47,15.60
2007,07,14,02,48,15.60
2007,07,14,02,49,15.60
2007,07,14,02,50,15.60
2007,07,14,02,51,15.60
2007,07,14,02,52,15.50
2007,07,14,02,53,15.50
2007,07,14,02,54,15.50
2007,07,14,02,55,15.50
2007,07,14,02,56,15.40
2007,07,14,02,57,15.40
2007,07,14,02,58,15.40
2007,07,14,02,59,15.40
2007,07,14,03,00,15.40
2007,07,14,03,01,15.30
2007,07,14,03,02,15.30
2007,07,14,03,03,15.30
2007,07,14,03,04,15.30
2007,07,14,03,05,15.30
2007,07,14,03,06,15.30
2007,07,14,03,07,15.30
2007,07,14,03,08,15.30
2007,07,14,03,09,15.30
2007,07,14,03,10,15.30
2007,07,14,03,11,15.30
2007,07,14,03,12,15.30
2007,07,14,03,13,15.30
2007,07,14,03,14,15.30
2007,07,14,03,15,15.20
2007,07,14,03,16,15.20
2007,07,14,03,17,15.20
2007,07,14,03,18,15.20
2007,07,14,03,19,15.20
2007,07,14,03,20,15.10
2007,07,14,03,21,15.10
2007,07,14,03,22,15.10
2007,07,14,03,23,15.10
2007,07,14,03,24,15.00
2007,07,14,03,25,15.00
2007,07,14,03,26,15.00
2007,07,14,03,27,14.90
2007,07,14,03,28,14.90
2007,07,14,03,29,14.80
2007,07,14,03,30,14.80
2007,07,14,03,31,14.80
2007,07,14,03,32,14.80
2007,07,14,03,33,14.80
2007,07,14,03,34,14.80
2007,07,14,03,35,14.80
2007,07,14,03,36,14.70
2007,07,14,03,37,14.70
2007,07,14,03,38,14.70
2007,07,14,03,39,14.70
2007,07,14,03,40,14.70
2007,07,14,03,41,14.70
2007,07,14,03,42,14.80
2007,07,14,03,43,14.80
2007,07,14,03,44,14.80
2007,07,14,03,45,14.80
2007,07,14,03,46,14.80
2007,07,14,03,47,14.80
2007,07,14,03,48,14.80
2007,07,14,03,49,14.80
2007,07,14,03,50,14.80
2007,07,14,03,51,14.70
2007,07,14,03,52,14.70
2007,07,14,03,53,14.70
2007,07,14,03,54,14.70
2007,07,14,03,55,14.70
2007,07,14,03,56,14.70
2007,07,14,03,57,14.70
2007,07,14,03,58,14.70
2007,07,14,03,59,14.70
2007,07,14,04,00,14.60
2007,07,14,04,01,14.60
2007,07,14,04,02,14.60
2007,07,14,04,03,14.60
2007,07,14,04,04,14.60
2007,07,14,04,05,14.50
2007,07,14,04,06,14.50
2007,07,14,04,07,14.50
2007,07,14,04,08,14.50
2007,07,14,04,09,14.50
2007,07,14,04,10,14.40
2007,07,14,04,11,14.40
2007,07,14,04,12,14.40
2007,07,14,04,13,14.40
2007,07,14,04,14,14.40
2007,07,14,04,15,14.30
2007,07,14,04,16,14.30
2007,07,14,04,17,14.30
2007,07,14,04,18,14.30
2007,07,14,04,19,14.30
2007,07,14,04,20,14.30
2007,07,14,04,21,14.30
2007,07,14,04,22,14.30
2007,07,14,04,23,14.30
2007,07,14,04,24,14.30
2007,07,14,04,25,14.30
2007,07,14,04,26,14.40
2007,07,14,04,27,14.40
2007,07,14,04,28,14.40
2007,07,14,04,29,14.40
2007,07,14,04,30,14.40
2007,07,14,04,31,14.50
2007,07,14,04,32,14.50
2007,07,14,04,33,14.50
2007,07,14,04,34,14.50
2007,07,14,04,35,14.50
2007,07,14,04,36,14.40
2007,07,14,04,37,14.40
2007,07,14,04,38,14.40
2007,07,14,04,39,14.40
2007,07,14,04,40,14.40
2007,07,14,04,41,14.40
2007,07,14,04,42,14.30
2007,07,14,04,43,14.30
2007,07,14,04,44,14.30
2007,07,14,04,45,14.30
2007,07,14,04,46,14.30
2007,07,14,04,47,14.20
2007,07,14,04,48,14.20
2007,07,14,04,49,14.20
2007,07,14,04,50,14.20
2007,07,14,04,51,14.20
2007,07,14,04,52,14.20
2007,07,14,04,53,14.20
2007,07,14,04,54,14.20
2007,07,14,04,55,14.20
2007,07,14,04,56,14.20
2007,07,14,04,57,14.20
2007,07,14,04,58,14.10
2007,07,14,04,59,14.10
2007,07,14,05,00,14.10
2007,07,14,05,01,14.10
2007,07,14,05,02,14.10
2007,07,14,05,03,14.10
2007,07,14,05,04,14.10
2007,07,14,05,05,14.10
2007,07,14,05,06,14.10
2007,07,14,05,07,14.10
2007,07,14,05,08,14.10
2007,07,14,05,09,14.10
2007,07,14,05,10,14.10
2007,07,14,05,11,14.10
2007,07,14,05,12,14.10
2007,07,14,05,13,14.10
2007,07,14,05,14,14.10
2007,07,14,05,15,14.00
2007,07,14,05,16,14.00
2007,07,14,05,17,14.00
2007,07,14,05,18,14.00
2007,07,14,05,19,14.00
2007,07,14,05,20,14.00
2007,07,14,05,21,14.00
2007,07,14,05,22,14.00
2007,07,14,05,23,14.00
2007,07,14,05,24,14.00
2007,07,14,05,25,14.00
2007,07,14,05,26,14.00
2007,07,14,05,27,14.00
2007,07,14,05,28,14.00
2007,07,14,05,29,14.00
2007,07,14,05,30,14.00
2007,07,14,05,31,14.00
2007,07,14,05,32,14.00
2007,07,14,05,33,14.00
2007,07,14,05,34,14.00
2007,07,14,05,35,14.00
2007,07,14,05,36,14.00
2007,07,14,05,37,14.00
2007,07,14,05,38,14.00
2007,07,14,05,39,14.00
2007,07,14,05,40,14.00
2007,07,14,05,41,14.00
2007,07,14,05,42,14.00
2007,07,14,05,43,13.90
2007,07,14,05,44,13.90
2007,07,14,05,45,13.90
2007,07,14,05,46,13.90
2007,07,14,05,47,13.90
2007,07,14,05,48,13.90
2007,07,14,05,49,13.90
2007,07,14,05,50,14.00
2007,07,14,05,51,14.00
2007,07,14,05,52,14.00
2007,07,14,05,53,14.00
2007,07,14,05,54,14.00
2007,07,14,05,55,14.00
2007,07,14,05,56,14.00
2007,07,14,05,57,14.10
2007,07,14,05,58,14.10
2007,07,14,05,59,14.10
2007,07,14,06,00,14.10
2007,07,14,06,01,14.20
2007,07,14,06,02,14.20
2007,07,14,06,03,14.20
2007,07,14,06,04,14.20
2007,07,14,06,05,14.20
2007,07,14,06,06,14.20
2007,07,14,06,07,14.20
2007,07,14,06,08,14.30
2007,07,14,06,09,14.30
2007,07,14,06,10,14.30
2007,07,14,06,11,14.40
2007,07,14,06,12,14.40
2007,07,14,06,13,14.40
2007,07,14,06,14,14.50
2007,07,14,06,15,14.50
2007,07,14,06,16,14.50
2007,07,14,06,17,14.50
2007,07,14,06,18,14.60
2007,07,14,06,19,14.60
2007,07,14,06,20,14.60
2007,07,14,06,21,14.70
2007,07,14,06,22,14.70
2007,07,14,06,23,14.80
2007,07,14,06,24,14.80
2007,07,14,06,25,14.80
2007,07,14,06,26,14.80
2007,07,14,06,27,14.80
2007,07,14,06,28,14.80
2007,07,14,06,29,14.80
2007,07,14,06,30,14.80
2007,07,14,06,31,14.80
2007,07,14,06,32,14.90
2007,07,14,06,33,14.90
2007,07,14,06,34,14.90
2007,07,14,06,35,14.90
2007,07,14,06,36,14.90
2007,07,14,06,37,14.90
2007,07,14,06,38,14.90
2007,07,14,06,39,14.90
2007,07,14,06,40,14.90
2007,07,14,06,41,14.90
2007,07,14,06,42,14.90
2007,07,14,06,43,14.90
2007,07,14,06,44,15.00
2007,07,14,06,45,15.00
2007,07,14,06,46,15.00
2007,07,14,06,47,15.00
2007,07,14,06,48,15.00
2007,07,14,06,49,15.00
2007,07,14,06,50,15.00
2007,07,14,06,51,15.00
2007,07,14,06,52,14.90
2007,07,14,06,53,14.90
2007,07,14,06,54,14.90
2007,07,14,06,55,14.90
2007,07,14,06,56,14.80
2007,07,14,06,57,14.80
2007,07,14,06,58,14.80
2007,07,14,06,59,14.80
2007,07,14,07,00,14.80
2007,07,14,07,01,14.80
2007,07,14,07,02,14.80
2007,07,14,07,03,14.80
2007,07,14,07,04,14.80
2007,07,14,07,05,14.80
2007,07,14,07,06,14.80
2007,07,14,07,07,15.00
2007,07,14,07,08,15.10
2007,07,14,07,09,15.20
2007,07,14,07,10,15.40
2007,07,14,07,11,15.50
2007,07,14,07,12,15.60
2007,07,14,07,13,15.80
2007,07,14,07,14,15.90
2007,07,14,07,15,15.90
2007,07,14,07,16,16.00
2007,07,14,07,17,16.10
2007,07,14,07,18,16.10
2007,07,14,07,19,16.10
2007,07,14,07,20,16.10
2007,07,14,07,21,16.10
2007,07,14,07,22,16.20
2007,07,14,07,23,16.20
2007,07,14,07,24,16.20
2007,07,14,07,25,16.30
2007,07,14,07,26,16.30
2007,07,14,07,27,16.40
2007,07,14,07,28,16.40
2007,07,14,07,29,16.40
2007,07,14,07,30,16.40
2007,07,14,07,31,16.40
2007,07,14,07,32,16.40
2007,07,14,07,33,16.60
2007,07,14,07,34,16.60
2007,07,14,07,35,16.60
2007,07,14,07,36,16.60
2007,07,14,07,37,16.70
2007,07,14,07,38,16.70
2007,07,14,07,39,16.70
2007,07,14,07,40,16.70
2007,07,14,07,41,16.80
2007,07,14,07,42,16.80
2007,07,14,07,43,16.90
2007,07,14,07,44,16.90
2007,07,14,07,45,17.00
2007,07,14,07,46,17.00
2007,07,14,07,47,17.10
2007,07,14,07,48,17.10
2007,07,14,07,49,17.20
2007,07,14,07,50,17.20
2007,07,14,07,51,17.30
2007,07,14,07,52,17.40
2007,07,14,07,53,17.50
2007,07,14,07,54,17.50
2007,07,14,07,55,17.60
2007,07,14,07,56,17.80
2007,07,14,07,57,17.80
2007,07,14,07,58,18.00
2007,07,14,07,59,18.10
2007,07,14,08,00,18.20
2007,07,14,08,01,18.20
2007,07,14,08,02,18.20
2007,07,14,08,03,18.30
2007,07,14,08,04,18.40
2007,07,14,08,05,18.40
2007,07,14,08,06,18.40
2007,07,14,08,07,18.30
2007,07,14,08,08,18.20
2007,07,14,08,09,18.20
2007,07,14,08,10,18.20
2007,07,14,08,11,18.30
2007,07,14,08,12,18.40
2007,07,14,08,13,18.50
2007,07,14,08,14,18.50
2007,07,14,08,15,18.50
2007,07,14,08,16,18.50
2007,07,14,08,17,18.40
2007,07,14,08,18,18.40
2007,07,14,08,19,18.40
2007,07,14,08,20,18.30
2007,07,14,08,21,18.30
2007,07,14,08,22,18.30
2007,07,14,08,23,18.20
2007,07,14,08,24,18.20
2007,07,14,08,25,18.20
2007,07,14,08,26,18.20
2007,07,14,08,27,18.20
2007,07,14,08,28,18.10
2007,07,14,08,29,18.10
2007,07,14,08,30,18.10
2007,07,14,08,31,18.10
2007,07,14,08,32,18.10
2007,07,14,08,33,18.10
2007,07,14,08,34,18.10
2007,07,14,08,35,18.20
2007,07,14,08,36,18.20
2007,07,14,08,37,18.20
2007,07,14,08,38,18.30
2007,07,14,08,39,18.30
2007,07,14,08,40,18.40
2007,07,14,08,41,18.40
2007,07,14,08,42,18.50
2007,07,14,08,43,18.60
2007,07,14,08,44,18.80
2007,07,14,08,45,18.90
2007,07,14,08,46,19.00
2007,07,14,08,47,19.20
2007,07,14,08,48,19.30
2007,07,14,08,49,19.40
2007,07,14,08,50,19.50
2007,07,14,08,51,19.50
2007,07,14,08,52,19.40
2007,07,14,08,53,19.40
2007,07,14,08,54,19.30
2007,07,14,08,55,19.30
2007,07,14,08,56,19.30
2007,07,14,08,57,19.30
2007,07,14,08,58,19.40
2007,07,14,08,59,19.40
2007,07,14,09,00,19.40
2007,07,14,09,01,19.40
2007,07,14,09,02,19.50
2007,07,14,09,03,19.50
2007,07,14,09,04,19.50
2007,07,14,09,05,19.50
2007,07,14,09,06,19.40
2007,07,14,09,07,19.40
2007,07,14,09,08,19.40
2007,07,14,09,09,19.40
2007,07,14,09,10,19.50
2007,07,14,09,11,19.60
2007,07,14,09,12,19.70
2007,07,14,09,13,19.70
2007,07,14,09,14,19.80
2007,07,14,09,15,19.80
2007,07,14,09,16,19.80
2007,07,14,09,17,19.80
2007,07,14,09,18,19.80
2007,07,14,09,19,19.70
2007,07,14,09,20,19.70
2007,07,14,09,21,19.70
2007,07,14,09,22,19.70
2007,07,14,09,23,19.70
2007,07,14,09,24,19.80
2007,07,14,09,25,19.80
2007,07,14,09,26,19.90
2007,07,14,09,27,19.90
2007,07,14,09,28,19.90
2007,07,14,09,29,19.90
2007,07,14,09,30,19.90
2007,07,14,09,31,19.90
2007,07,14,09,32,19.90
2007,07,14,09,33,19.90
2007,07,14,09,34,19.90
2007,07,14,09,35,20.10
2007,07,14,09,36,20.20
2007,07,14,09,37,20.20
2007,07,14,09,38,20.20
2007,07,14,09,39,20.30
2007,07,14,09,40,20.40
2007,07,14,09,41,20.50
2007,07,14,09,42,20.60
2007,07,14,09,43,20.60
2007,07,14,09,44,20.60
2007,07,14,09,45,20.70
2007,07,14,09,46,20.80
2007,07,14,09,47,20.80
2007,07,14,09,48,20.90
2007,07,14,09,49,20.90
2007,07,14,09,50,21.00
2007,07,14,09,51,21.00
2007,07,14,09,52,21.00
2007,07,14,09,53,21.00
2007,07,14,09,54,21.10
2007,07,14,09,55,21.10
2007,07,14,09,56,21.10
2007,07,14,09,57,21.00
2007,07,14,09,58,21.00
2007,07,14,09,59,20.90
2007,07,14,10,00,21.00
2007,07,14,10,01,21.00
2007,07,14,10,02,21.10
2007,07,14,10,03,21.20
2007,07,14,10,04,21.10
2007,07,14,10,05,21.10
2007,07,14,10,06,21.10
2007,07,14,10,07,21.10
2007,07,14,10,08,21.10
2007,07,14,10,09,21.10
2007,07,14,10,10,21.20
2007,07,14,10,11,21.20
2007,07,14,10,12,21.30
2007,07,14,10,13,21.20
2007,07,14,10,14,21.10
2007,07,14,10,15,21.00
2007,07,14,10,16,21.00
2007,07,14,10,17,21.00
2007,07,14,10,18,20.90
2007,07,14,10,19,20.90
2007,07,14,10,20,20.90
2007,07,14,10,21,21.00
2007,07,14,10,22,20.90
2007,07,14,10,23,20.90
2007,07,14,10,24,20.90
2007,07,14,10,25,20.80
2007,07,14,10,26,20.80
2007,07,14,10,27,20.70
2007,07,14,10,28,20.60
2007,07,14,10,29,20.50
2007,07,14,10,30,20.40
2007,07,14,10,31,20.30
2007,07,14,10,32,20.30
2007,07,14,10,33,20.20
2007,07,14,10,34,20.20
2007,07,14,10,35,20.20
2007,07,14,10,36,20.10
2007,07,14,10,37,20.10
2007,07,14,10,38,20.00
2007,07,14,10,39,19.90
2007,07,14,10,40,19.90
2007,07,14,10,41,20.10
2007,07,14,10,42,19.90
2007,07,14,10,43,19.90
2007,07,14,10,44,20.00
2007,07,14,10,45,20.10
2007,07,14,10,46,20.20
2007,07,14,10,47,20.30
2007,07,14,10,48,20.50
2007,07,14,10,49,20.50
2007,07,14,10,50,20.60
2007,07,14,10,51,20.80
2007,07,14,10,52,20.90
2007,07,14,10,53,21.00
2007,07,14,10,54,21.00
2007,07,14,10,55,21.10
2007,07,14,10,56,21.10
2007,07,14,10,57,21.10
2007,07,14,10,58,21.20
2007,07,14,10,59,21.20
2007,07,14,11,00,21.20
2007,07,14,11,01,21.20
2007,07,14,11,02,21.20
2007,07,14,11,03,21.20
2007,07,14,11,04,21.30
2007,07,14,11,05,21.20
2007,07,14,11,06,21.00
2007,07,14,11,07,21.00
2007,07,14,11,08,21.10
2007,07,14,11,09,21.10
2007,07,14,11,10,21.20
2007,07,14,11,11,21.30
2007,07,14,11,12,21.40
2007,07,14,11,13,21.60
2007,07,14,11,14,21.60
2007,07,14,11,15,21.60
2007,07,14,11,16,21.60
2007,07,14,11,17,21.60
2007,07,14,11,18,21.60
2007,07,14,11,19,21.60
2007,07,14,11,20,21.60
2007,07,14,11,21,21.60
2007,07,14,11,22,21.60
2007,07,14,11,23,21.60
2007,07,14,11,24,21.60
2007,07,14,11,25,21.70
2007,07,14,11,26,21.70
2007,07,14,11,27,21.70
2007,07,14,11,28,21.70
2007,07,14,11,29,21.70
2007,07,14,11,30,21.60
2007,07,14,11,31,21.60
2007,07,14,11,32,21.40
2007,07,14,11,33,21.30
2007,07,14,11,34,21.30
2007,07,14,11,35,21.30
2007,07,14,11,36,21.30
2007,07,14,11,37,21.40
2007,07,14,11,38,21.40
2007,07,14,11,39,21.40
2007,07,14,11,40,21.40
2007,07,14,11,41,21.30
2007,07,14,11,42,21.30
2007,07,14,11,43,21.30
2007,07,14,11,44,21.30
2007,07,14,11,45,21.30
2007,07,14,11,46,21.40
2007,07,14,11,47,21.60
2007,07,14,11,48,21.50
2007,07,14,11,49,21.40
2007,07,14,11,50,21.40
2007,07,14,11,51,21.30
2007,07,14,11,52,21.30
2007,07,14,11,53,21.20
2007,07,14,11,54,21.20
2007,07,14,11,55,21.20
2007,07,14,11,56,21.30
2007,07,14,11,57,21.30
2007,07,14,11,58,21.30
2007,07,14,11,59,21.30
2007,07,14,12,00,21.30
2007,07,14,12,01,21.30
2007,07,14,12,02,21.30
2007,07,14,12,03,21.30
2007,07,14,12,04,21.30
2007,07,14,12,05,21.30
2007,07,14,12,06,21.30
2007,07,14,12,07,21.40
2007,07,14,12,08,21.50
2007,07,14,12,09,21.60
2007,07,14,12,10,21.60
2007,07,14,12,11,21.60
2007,07,14,12,12,21.60
2007,07,14,12,13,21.60
2007,07,14,12,14,21.60
2007,07,14,12,15,21.60
2007,07,14,12,16,21.40
2007,07,14,12,17,21.40
2007,07,14,12,18,21.50
2007,07,14,12,19,21.60
2007,07,14,12,20,21.60
2007,07,14,12,21,21.60
2007,07,14,12,22,21.50
2007,07,14,12,23,21.40
2007,07,14,12,24,21.30
2007,07,14,12,25,21.30
2007,07,14,12,26,21.30
2007,07,14,12,27,21.30
2007,07,14,12,28,21.30
2007,07,14,12,29,21.40
2007,07,14,12,30,21.60
2007,07,14,12,31,21.60
2007,07,14,12,32,21.50
2007,07,14,12,33,21.40
2007,07,14,12,34,21.40
2007,07,14,12,35,21.40
2007,07,14,12,36,21.40
2007,07,14,12,37,21.50
2007,07,14,12,38,21.60
2007,07,14,12,39,21.60
2007,07,14,12,40,21.60
2007,07,14,12,41,21.60
2007,07,14,12,42,21.70
2007,07,14,12,43,21.80
2007,07,14,12,44,21.80
2007,07,14,12,45,21.70
2007,07,14,12,46,21.70
2007,07,14,12,47,21.70
2007,07,14,12,48,21.70
2007,07,14,12,49,21.80
2007,07,14,12,50,21.80
2007,07,14,12,51,21.80
2007,07,14,12,52,21.80
2007,07,14,12,53,21.70
2007,07,14,12,54,21.70
2007,07,14,12,55,21.70
2007,07,14,12,56,21.70
2007,07,14,12,57,21.70
2007,07,14,12,58,21.60
2007,07,14,12,59,21.60
2007,07,14,13,00,21.60
2007,07,14,13,01,21.60
2007,07,14,13,02,21.70
2007,07,14,13,03,21.70
2007,07,14,13,04,21.70
2007,07,14,13,05,21.80
2007,07,14,13,06,21.80
2007,07,14,13,07,21.90
2007,07,14,13,08,21.90
2007,07,14,13,09,21.90
2007,07,14,13,10,21.80
2007,07,14,13,11,21.80
2007,07,14,13,12,21.70
2007,07,14,13,13,21.60
2007,07,14,13,14,21.50
2007,07,14,13,15,21.40
2007,07,14,13,16,21.30
2007,07,14,13,17,21.10
2007,07,14,13,18,21.10
2007,07,14,13,19,21.10
2007,07,14,13,20,21.10
2007,07,14,13,21,21.10
2007,07,14,13,22,21.10
2007,07,14,13,23,21.10
2007,07,14,13,24,21.10
2007,07,14,13,25,21.10
2007,07,14,13,26,21.00
2007,07,14,13,27,21.00
2007,07,14,13,28,20.90
2007,07,14,13,29,20.80
2007,07,14,13,30,20.80
2007,07,14,13,31,20.90
2007,07,14,13,32,21.00
2007,07,14,13,33,21.10
2007,07,14,13,34,21.20
2007,07,14,13,35,21.20
2007,07,14,13,36,21.30
2007,07,14,13,37,21.50
2007,07,14,13,38,21.60
2007,07,14,13,39,21.60
2007,07,14,13,40,21.60
2007,07,14,13,41,21.60
2007,07,14,13,42,21.40
2007,07,14,13,43,21.40
2007,07,14,13,44,21.40
2007,07,14,13,45,21.50
2007,07,14,13,46,21.60
2007,07,14,13,47,21.70
2007,07,14,13,48,21.70
2007,07,14,13,49,21.80
2007,07,14,13,50,21.70
2007,07,14,13,51,21.70
2007,07,14,13,52,21.80
2007,07,14,13,53,21.80
2007,07,14,13,54,21.90
2007,07,14,13,55,21.90
2007,07,14,13,56,21.90
2007,07,14,13,57,22.10
2007,07,14,13,58,22.30
2007,07,14,13,59,22.40
2007,07,14,14,00,22.50
2007,07,14,14,01,22.60
2007,07,14,14,02,22.60
2007,07,14,14,03,22.60
2007,07,14,14,04,22.60
2007,07,14,14,05,22.80
2007,07,14,14,06,22.80
2007,07,14,14,07,22.70
2007,07,14,14,08,22.70
2007,07,14,14,09,22.60
2007,07,14,14,10,22.50
2007,07,14,14,11,22.50
2007,07,14,14,12,22.50
2007,07,14,14,13,22.50
2007,07,14,14,14,22.50
2007,07,14,14,15,22.30
2007,07,14,14,16,22.30
2007,07,14,14,17,22.20
2007,07,14,14,18,22.00
2007,07,14,14,19,21.90
2007,07,14,14,20,21.70
2007,07,14,14,21,21.70
2007,07,14,14,22,21.70
2007,07,14,14,23,21.70
2007,07,14,14,24,21.70
2007,07,14,14,25,21.70
2007,07,14,14,26,21.60
2007,07,14,14,27,21.60
2007,07,14,14,28,21.60
2007,07,14,14,29,21.60
2007,07,14,14,30,21.60
2007,07,14,14,31,21.60
2007,07,14,14,32,21.60
2007,07,14,14,33,21.60
2007,07,14,14,34,21.60
2007,07,14,14,35,21.50
2007,07,14,14,36,21.40
2007,07,14,14,37,21.50
2007,07,14,14,38,21.40
2007,07,14,14,39,21.40
2007,07,14,14,40,21.30
2007,07,14,14,41,21.40
2007,07,14,14,42,21.40
2007,07,14,14,43,21.60
2007,07,14,14,44,21.40
2007,07,14,14,45,21.40
2007,07,14,14,46,21.60
2007,07,14,14,47,21.60
2007,07,14,14,48,21.60
2007,07,14,14,49,21.60
2007,07,14,14,50,21.70
2007,07,14,14,51,21.70
2007,07,14,14,52,21.70
2007,07,14,14,53,21.70
2007,07,14,14,54,21.70
2007,07,14,14,55,21.80
2007,07,14,14,56,21.80
2007,07,14,14,57,21.90
2007,07,14,14,58,22.00
2007,07,14,14,59,22.00
2007,07,14,15,00,22.10
2007,07,14,15,01,22.10
2007,07,14,15,02,22.10
2007,07,14,15,03,22.20
2007,07,14,15,04,22.20
2007,07,14,15,05,22.30
2007,07,14,15,06,22.40
2007,07,14,15,07,22.50
2007,07,14,15,08,22.60
2007,07,14,15,09,22.70
2007,07,14,15,10,22.70
2007,07,14,15,11,22.60
2007,07,14,15,12,22.60
2007,07,14,15,13,22.50
2007,07,14,15,14,22.40
2007,07,14,15,15,22.40
2007,07,14,15,16,22.40
2007,07,14,15,17,22.40
2007,07,14,15,18,22.40
2007,07,14,15,19,22.40
2007,07,14,15,20,22.40
2007,07,14,15,21,22.50
2007,07,14,15,22,22.50
2007,07,14,15,23,22.60
2007,07,14,15,24,22.60
2007,07,14,15,25,22.70
2007,07,14,15,26,22.70
2007,07,14,15,27,22.70
2007,07,14,15,28,22.60
2007,07,14,15,29,22.70
2007,07,14,15,30,22.70
2007,07,14,15,31,22.80
2007,07,14,15,32,22.80
2007,07,14,15,33,22.80
2007,07,14,15,34,22.90
2007,07,14,15,35,22.90
2007,07,14,15,36,23.00
2007,07,14,15,37,23.10
2007,07,14,15,38,23.30
2007,07,14,15,39,23.30
2007,07,14,15,40,23.50
2007,07,14,15,41,23.60
2007,07,14,15,42,23.70
2007,07,14,15,43,23.70
2007,07,14,15,44,23.70
2007,07,14,15,45,23.70
2007,07,14,15,46,23.70
2007,07,14,15,47,23.60
2007,07,14,15,48,23.60
2007,07,14,15,49,23.70
2007,07,14,15,50,23.70
2007,07,14,15,51,23.70
2007,07,14,15,52,23.80
2007,07,14,15,53,23.80
2007,07,14,15,54,23.80
2007,07,14,15,55,23.80
2007,07,14,15,56,23.70
2007,07,14,15,57,23.70
2007,07,14,15,58,23.70
2007,07,14,15,59,23.60
2007,07,14,16,00,23.60
2007,07,14,16,01,23.70
2007,07,14,16,02,23.70
2007,07,14,16,03,23.70
2007,07,14,16,04,23.70
2007,07,14,16,05,23.70
2007,07,14,16,06,23.80
2007,07,14,16,07,23.80
2007,07,14,16,08,23.80
2007,07,14,16,09,23.80
2007,07,14,16,10,23.80
2007,07,14,16,11,23.80
2007,07,14,16,12,23.80
2007,07,14,16,13,23.80
2007,07,14,16,14,23.70
2007,07,14,16,15,23.70
2007,07,14,16,16,23.70
2007,07,14,16,17,23.70
2007,07,14,16,18,23.80
2007,07,14,16,19,23.80
2007,07,14,16,20,23.90
2007,07,14,16,21,24.00
2007,07,14,16,22,24.10
2007,07,14,16,23,24.10
2007,07,14,16,24,24.10
2007,07,14,16,25,24.10
2007,07,14,16,26,24.20
2007,07,14,16,27,24.20
2007,07,14,16,28,24.20
2007,07,14,16,29,24.10
2007,07,14,16,30,24.20
2007,07,14,16,31,24.30
2007,07,14,16,32,24.40
2007,07,14,16,33,24.50
2007,07,14,16,34,24.60
2007,07,14,16,35,24.60
2007,07,14,16,36,24.50
2007,07,14,16,37,24.50
2007,07,14,16,38,24.50
2007,07,14,16,39,24.50
2007,07,14,16,40,24.50
2007,07,14,16,41,24.50
2007,07,14,16,42,24.50
2007,07,14,16,43,24.50
2007,07,14,16,44,24.60
2007,07,14,16,45,24.60
2007,07,14,16,46,24.50
2007,07,14,16,47,24.40
2007,07,14,16,48,24.30
2007,07,14,16,49,24.30
2007,07,14,16,50,24.40
2007,07,14,16,51,24.50
2007,07,14,16,52,24.50
2007,07,14,16,53,24.50
2007,07,14,16,54,24.50
2007,07,14,16,55,24.50
2007,07,14,16,56,24.40
2007,07,14,16,57,24.40
2007,07,14,16,58,24.40
2007,07,14,16,59,24.40
2007,07,14,17,00,24.30
2007,07,14,17,01,24.30
2007,07,14,17,02,24.30
2007,07,14,17,03,24.40
2007,07,14,17,04,24.50
2007,07,14,17,05,24.50
2007,07,14,17,06,24.50
2007,07,14,17,07,24.60
2007,07,14,17,08,24.60
2007,07,14,17,09,24.60
2007,07,14,17,10,24.60
2007,07,14,17,11,24.60
2007,07,14,17,12,24.70
2007,07,14,17,13,24.60
2007,07,14,17,14,24.60
2007,07,14,17,15,24.50
2007,07,14,17,16,24.50
2007,07,14,17,17,24.50
2007,07,14,17,18,24.50
2007,07,14,17,19,24.60